Flag for Germany Past Weather in Heidenheim an der Brenz, Baden-Württemberg, Germany — Yesterday and Last 2 Weeks

43 °F

Passing clouds.

Feels Like: 41 °F
Forecast: 35 / 47 °F
Wind: 3 mph from Southwest

Location: Laupheim Airport

Current Time: Oct 21, 2016 at 8:34:11 PM

Latest Report: Oct 21, 2016 at 7:20 PM

Visibility: N/A

Pressure: 29.98 "Hg

Humidity: 87%

Dew Point: 39 °F

Location of Heidenheim an der BrenzLocation

Past Weather in Heidenheim an der Brenz — Graph


Heidenheim an der Brenz Temperature Yesterday

Maximum temperature yesterday: 48 °F (at 6:20 PM)
Minimum temperature yesterday: 41 °F (at 2:20 AM)
Average temperature yesterday: 43 °F

High & Low Weather Summary for the Past Weeks

High63 °F (Oct 16, 3:20 PM)100% (Oct 7, 2:20 AM)30.24 "Hg (Oct 7, 2:20 AM)
Low34 °F (Oct 13, 12:20 AM)54% (Oct 9, 3:20 PM)29.68 "Hg (Oct 14, 5:20 PM)
Average45 °F86%30.06 "Hg
* Reported Oct 6 7:20 PM — Oct 21 7:20 PM, Heidenheim an der Brenz, Weather by CustomWeather, © 2016

Note: Actual official high and low records may vary slightly from our data, if they occured in-between our weather recording intervals... More about our weather records


Heidenheim an der Brenz Weather History for the Previous 24 Hours

Scroll right to see more
Time TempWeatherWind HumidityBarometerVisibility
7:20 PM
Fri, Oct 21
43 °FPassing clouds.3 mph87%29.98 "HgN/A
6:20 PM45 °FPassing clouds.5 mph71%29.98 "HgN/A
5:20 PM45 °FPartly sunny.5 mph66%29.98 "HgN/A
4:20 PM45 °FPartly sunny.7 mph66%29.98 "HgN/A
3:20 PM46 °FPartly sunny.6 mph66%29.98 "HgN/A
2:20 PM46 °FBroken clouds.7 mph66%29.95 "Hg5 mi
1:20 PM45 °FBroken clouds.5 mph71%29.98 "HgN/A
12:20 PM45 °FBroken clouds.7 mph71%29.98 "HgN/A
12:00 PM45 °FBroken clouds.6 mph81%29.98 "HgN/A
11:20 AM43 °FBroken clouds.5 mph87%29.95 "HgN/A
10:20 AM43 °FBroken clouds.5 mph93%29.95 "HgN/A
10:03 AM41 °FLight rain. Broken clouds.3 mph100%29.95 "HgN/A
9:20 AM43 °FLight rain. Broken clouds.5 mph93%29.95 "Hg6 mi
8:49 AM43 °FLight rain. Broken clouds.3 mph93%29.95 "HgN/A
8:20 AM43 °FBroken clouds.3 mph93%29.92 "HgN/A
7:20 AM43 °FLight rain. Partly cloudy.6 mph93%29.92 "HgN/A
7:03 AM43 °FLight rain. Partly cloudy.6 mph93%29.92 "HgN/A
6:20 AM43 °FPassing clouds.5 mph93%29.92 "Hg4 mi
5:20 AM43 °FPassing clouds.5 mph93%29.89 "Hg4 mi
4:20 AM43 °FPartly cloudy.9 mph93%29.89 "HgN/A
3:20 AM43 °FRain. Passing clouds.10 mph93%29.89 "HgN/A
1:20 AM43 °FPartly cloudy.9 mph81%29.92 "HgN/A
12:20 AM41 °FPassing clouds.9 mph87%29.92 "HgN/A
11:20 PM
Thu, Oct 20
41 °FPassing clouds.8 mph87%29.92 "HgN/A
10:20 PM43 °FPartly cloudy.8 mph81%29.92 "HgN/A
9:20 PM43 °FPassing clouds.8 mph81%29.92 "HgN/A
8:20 PM45 °FPassing clouds.8 mph76%29.92 "HgN/A
Weather by CustomWeather, © 2016

See weather overviewHow to use our weather pages